| time (UTC) | temp F | wind direction | speed MPH | gust MPH | rain 1hr in | rain 24hr in | rain mn in | humidity % | barometer mb |
| 20260906104611 | 71 | 96 | 0.0 | 0.0 | 0.00 | 0.00 | 0.00 | 46 | 1011.2 |
| 20260906103539 | 71 | 110 | 0.0 | 0.0 | 0.00 | 0.00 | 0.00 | 45 | 1010.8 |
| 20260906102538 | 71 | 110 | 0.0 | 0.0 | 0.00 | 0.00 | 0.00 | 45 | 1010.5 |
| 20260906101537 | 71 | 110 | 0.0 | 1.0 | 0.00 | 0.00 | 0.00 | 45 | 1010.5 |
| 20260906100535 | 70 | 103 | 0.0 | 1.0 | 0.00 | 0.00 | 0.00 | 45 | 1010.2 |
| 20260906095534 | 70 | 105 | 1.0 | 1.0 | 0.00 | 0.00 | 0.00 | 45 | 1010.2 |
| 20260906094534 | 69 | 104 | 0.0 | 1.0 | 0.00 | 0.00 | 0.00 | 46 | 1010.2 |
| 20260906093532 | 69 | 321 | 0.0 | 0.0 | 0.00 | 0.00 | 0.00 | 47 | 1010.2 |
| 20260906092532 | 69 | 321 | 0.0 | 0.0 | 0.00 | 0.00 | 0.00 | 46 | 1010.2 |
| 20260906091531 | 69 | 321 | 0.0 | 0.0 | 0.00 | 0.00 | 0.00 | 47 | 1010.2 |
| 20260906090530 | 69 | 321 | 0.0 | 0.0 | 0.00 | 0.00 | 0.00 | 47 | 1010.2 |
| 20260906085529 | 69 | 321 | 0.0 | 0.0 | 0.00 | 0.00 | 0.00 | 46 | 1009.8 |
| 20260906084527 | 68 | 321 | 0.0 | 0.0 | 0.00 | 0.00 | 0.00 | 49 | 1009.8 |
| 20260906083526 | 68 | 321 | 0.0 | 0.0 | 0.00 | 0.00 | 0.00 | 50 | 1009.8 |
| 20260906082423 | 68 | 321 | 0.0 | 0.0 | 0.00 | 0.00 | 0.00 | 50 | 1009.5 |
| 20260906081351 | 68 | 321 | 0.0 | 0.0 | 0.00 | 0.00 | 0.00 | 53 | 1009.5 |
| 20260906080350 | 68 | 321 | 0.0 | 0.0 | 0.00 | 0.00 | 0.00 | 55 | 1009.5 |
| 20260906075350 | 68 | 321 | 0.0 | 0.0 | 0.00 | 0.00 | 0.00 | 54 | 1009.8 |
| 20260906074349 | 68 | 321 | 0.0 | 0.0 | 0.00 | 0.00 | 0.00 | 55 | 1009.5 |
| 20260906073347 | 68 | 321 | 0.0 | 0.0 | 0.00 | 0.00 | 0.00 | 54 | 1009.8 |
| 20260906072315 | 68 | 321 | 0.0 | 0.0 | 0.00 | 0.00 | 0.00 | 55 | 1009.8 |
| 20260906071313 | 68 | 321 | 0.0 | 0.0 | 0.00 | 0.00 | 0.00 | 55 | 1009.8 |
| 20260906070312 | 68 | 321 | 0.0 | 0.0 | 0.00 | 0.00 | 0.00 | 55 | 1010.2 |
| 20260906065208 | 68 | 321 | 0.0 | 0.0 | 0.00 | 0.00 | 0.00 | 58 | 1010.2 |
| 20260906064207 | 68 | 321 | 0.0 | 0.0 | 0.00 | 0.00 | 0.00 | 58 | 1010.2 |
| 20260906063206 | 68 | 321 | 0.0 | 0.0 | 0.00 | 0.00 | 0.00 | 57 | 1010.2 |
| 20260906062205 | 68 | 321 | 0.0 | 0.0 | 0.00 | 0.00 | 0.00 | 63 | 1010.2 |
| 20260906061132 | 68 | 321 | 0.0 | 0.0 | 0.00 | 0.00 | 0.00 | 64 | 1010.2 |
| 20260906060131 | 68 | 321 | 0.0 | 0.0 | 0.00 | 0.00 | 0.00 | 66 | 1010.2 |
| 20260906055059 | 68 | 321 | 0.0 | 0.0 | 0.00 | 0.00 | 0.00 | 69 | 1009.8 |
| 20260906054026 | 69 | 321 | 0.0 | 0.0 | 0.00 | 0.00 | 0.00 | 72 | 1009.8 |
| 20260906053025 | 69 | 321 | 0.0 | 0.0 | 0.00 | 0.00 | 0.00 | 72 | 1010.2 |
| 20260906052024 | 69 | 321 | 0.0 | 0.0 | 0.00 | 0.00 | 0.00 | 71 | 1009.8 |
| 20260906051022 | 69 | 321 | 0.0 | 0.0 | 0.00 | 0.00 | 0.00 | 74 | 1009.8 |
| 20260906050021 | 70 | 321 | 0.0 | 0.0 | 0.00 | 0.00 | 0.00 | 77 | 1010.2 |
| 20260906045021 | 70 | 321 | 0.0 | 0.0 | 0.00 | 0.00 | 0.00 | 76 | 1010.2 |
| 20260906044019 | 69 | 321 | 0.0 | 0.0 | 0.00 | 0.00 | 0.00 | 81 | 1010.2 |
| 20260906043018 | 70 | 325 | 0.0 | 0.0 | 0.00 | 0.00 | 0.00 | 83 | 1010.2 |
| 20260906042017 | 70 | 44 | 0.0 | 0.0 | 0.00 | 0.00 | 0.00 | 84 | 1010.2 |
| 20260906041016 | 70 | 84 | 0.0 | 0.0 | 0.00 | 0.00 | 0.00 | 84 | 1010.2 |
| 20260906040015 | 70 | 83 | 0.0 | 0.0 | 0.00 | 0.00 | 0.00 | 85 | 1010.2 |
| 20260906035014 | 70 | 82 | 0.0 | 0.0 | 0.00 | 0.00 | 0.00 | 85 | 1010.2 |
| 20260906034014 | 71 | 82 | 0.0 | 0.0 | 0.00 | 0.00 | 0.00 | 85 | 1010.2 |
| 20260906033013 | 71 | 83 | 0.0 | 0.0 | 0.00 | 0.00 | 0.00 | 85 | 1010.2 |
| 20260906032012 | 71 | 83 | 0.0 | 0.0 | 0.00 | 0.00 | 0.00 | 85 | 1010.2 |
| 20260906031011 | 71 | 81 | 0.0 | 0.0 | 0.00 | 0.00 | 0.00 | 85 | 1010.2 |
| 20260906030010 | 71 | 285 | 0.0 | 0.0 | 0.00 | 0.00 | 0.00 | 85 | 1010.2 |
| 20260906024939 | 72 | 70 | 0.0 | 0.0 | 0.00 | 0.00 | 0.00 | 85 | 1010.2 |
| 20260906023938 | 72 | 50 | 0.0 | 0.0 | 0.00 | 0.00 | 0.00 | 85 | 1010.2 |
| 20260906022937 | 72 | 288 | 0.0 | 1.0 | 0.00 | 0.00 | 0.00 | 84 | 1009.8 |
| 20260906021936 | 73 | 288 | 0.0 | 1.0 | 0.00 | 0.00 | 0.00 | 84 | 1009.8 |
| 20260906020933 | 73 | 289 | 0.0 | 0.0 | 0.00 | 0.00 | 0.00 | 84 | 1009.8 |
| 20260906015901 | 74 | 289 | 0.0 | 0.0 | 0.00 | 0.00 | 0.00 | 83 | 1009.5 |
| 20260906014900 | 74 | 289 | 0.0 | 0.0 | 0.00 | 0.00 | 0.00 | 81 | 1009.8 |
| 20260906013900 | 75 | 288 | 0.0 | 0.0 | 0.00 | 0.00 | 0.00 | 80 | 1009.8 |
| 20260906012859 | 75 | 288 | 0.0 | 0.0 | 0.00 | 0.00 | 0.00 | 79 | 1009.5 |
| 20260906011858 | 75 | 288 | 0.0 | 0.0 | 0.00 | 0.00 | 0.00 | 78 | 1009.5 |
| 20260906010857 | 76 | 288 | 0.0 | 0.0 | 0.00 | 0.00 | 0.00 | 78 | 1009.1 |
| 20260906005855 | 76 | 290 | 0.0 | 0.0 | 0.00 | 0.00 | 0.00 | 78 | 1009.1 |
| 20260906004853 | 77 | 276 | 0.0 | 0.0 | 0.00 | 0.00 | 0.00 | 75 | 1008.8 |
| 20260906003852 | 77 | 248 | 0.0 | 0.0 | 0.00 | 0.00 | 0.00 | 75 | 1008.8 |
| 20260906002851 | 77 | 243 | 0.0 | 0.0 | 0.00 | 0.00 | 0.00 | 78 | 1008.8 |
| 20260906001849 | 77 | 242 | 0.0 | 0.0 | 0.00 | 0.00 | 0.00 | 77 | 1008.5 |
| 20260906000849 | 78 | 242 | 0.0 | 0.0 | 0.00 | 0.00 | 0.00 | 76 | 1008.5 |
| 20260905235846 | 79 | 242 | 0.0 | 0.0 | 0.00 | 0.00 | 0.00 | 74 | 1008.5 |
| 20260905234846 | 80 | 242 | 0.0 | 0.0 | 0.00 | 0.00 | 0.00 | 73 | 1008.5 |
| 20260905233845 | 82 | 300 | 0.0 | 2.0 | 0.00 | 0.00 | 0.00 | 70 | 1008.5 |
| 20260905232844 | 83 | 300 | 0.0 | 2.0 | 0.00 | 0.00 | 0.00 | 68 | 1008.1 |
| 20260905231842 | 84 | 301 | 0.0 | 3.0 | 0.00 | 0.00 | 0.00 | 65 | 1008.1 |
| 20260905230810 | 85 | 299 | 1.0 | 6.0 | 0.00 | 0.00 | 0.00 | 64 | 1008.1 |
| 20260905225809 | 85 | 276 | 1.0 | 6.0 | 0.00 | 0.00 | 0.00 | 63 | 1008.1 |
| 20260905224809 | 86 | 269 | 2.0 | 6.0 | 0.00 | 0.00 | 0.00 | 61 | 1008.1 |
| 20260905223808 | 87 | 288 | 2.0 | 4.0 | 0.00 | 0.00 | 0.00 | 60 | 1008.1 |
| 20260905222806 | 88 | 270 | 2.0 | 5.0 | 0.00 | 0.00 | 0.00 | 58 | 1008.5 |
| 20260905221805 | 88 | 272 | 2.0 | 5.0 | 0.00 | 0.00 | 0.00 | 58 | 1008.5 |
| 20260905220804 | 87 | 178 | 1.0 | 5.0 | 0.00 | 0.00 | 0.00 | 60 | 1008.1 |
| 20260905215803 | 86 | 287 | 2.0 | 5.0 | 0.00 | 0.00 | 0.00 | 60 | 1008.5 |
| 20260905214802 | 87 | 288 | 2.0 | 7.0 | 0.00 | 0.00 | 0.00 | 58 | 1008.5 |
| 20260905213802 | 86 | 284 | 3.0 | 9.0 | 0.00 | 0.00 | 0.00 | 59 | 1008.5 |
| 20260905212801 | 85 | 300 | 4.0 | 9.0 | 0.00 | 0.00 | 0.00 | 59 | 1008.5 |
| 20260905211759 | 85 | 280 | 3.0 | 7.0 | 0.00 | 0.00 | 0.00 | 61 | 1008.5 |
| 20260905210759 | 86 | 265 | 3.0 | 7.0 | 0.00 | 0.00 | 0.00 | 59 | 1008.5 |
| 20260905205758 | 87 | 304 | 2.0 | 6.0 | 0.00 | 0.00 | 0.00 | 58 | 1008.1 |
| 20260905204757 | 88 | 302 | 3.0 | 6.0 | 0.00 | 0.00 | 0.00 | 56 | 1008.1 |
| 20260905203756 | 89 | 247 | 3.0 | 6.0 | 0.00 | 0.00 | 0.00 | 55 | 1008.5 |
| 20260905202723 | 89 | 261 | 2.0 | 5.0 | 0.00 | 0.00 | 0.00 | 55 | 1008.5 |
| 20260905201651 | 89 | 133 | 3.0 | 5.0 | 0.00 | 0.00 | 0.00 | 55 | 1008.1 |
| 20260905200651 | 88 | 229 | 3.0 | 7.0 | 0.00 | 0.00 | 0.00 | 57 | 1008.1 |
| 20260905195650 | 88 | 209 | 4.0 | 7.0 | 0.00 | 0.00 | 0.00 | 57 | 1008.1 |
| 20260905194649 | 88 | 111 | 1.0 | 5.0 | 0.00 | 0.00 | 0.00 | 57 | 1008.5 |
| 20260905193617 | 86 | 294 | 2.0 | 7.0 | 0.00 | 0.00 | 0.00 | 61 | 1008.5 |
| 20260905192616 | 85 | 257 | 3.0 | 7.0 | 0.00 | 0.00 | 0.00 | 63 | 1008.1 |
| 20260905191615 | 85 | 298 | 3.0 | 6.0 | 0.00 | 0.00 | 0.00 | 65 | 1008.1 |
| 20260905190614 | 84 | 96 | 0.0 | 1.0 | 0.00 | 0.00 | 0.00 | 63 | 1007.5 |
| 20260905185613 | 83 | 102 | 0.0 | 2.0 | 0.00 | 0.00 | 0.00 | 67 | 1007.5 |
| 20260905184612 | 83 | 295 | 0.0 | 5.0 | 0.00 | 0.00 | 0.00 | 64 | 1007.5 |
| 20260905183611 | 83 | 228 | 1.0 | 5.0 | 0.00 | 0.00 | 0.00 | 65 | 1008.1 |
| 20260905182609 | 84 | 308 | 3.0 | 10.0 | 0.00 | 0.00 | 0.00 | 64 | 1008.5 |
| 20260905181608 | 85 | 269 | 3.0 | 12.0 | 0.00 | 0.00 | 0.00 | 63 | 1009.1 |
| 20260905180607 | 86 | 300 | 3.0 | 12.0 | 0.00 | 0.00 | 0.00 | 61 | 1009.5 |
| 20260905175606 | 87 | 299 | 3.0 | 12.0 | 0.00 | 0.00 | 0.00 | 62 | 1009.1 |
| 20260905174606 | 88 | 289 | 6.0 | 12.0 | 0.00 | 0.00 | 0.00 | 61 | 1009.1 |
| 20260905173604 | 89 | 312 | 4.0 | 11.0 | 0.00 | 0.00 | 0.00 | 62 | 1009.1 |
| 20260905172602 | 91 | 319 | 4.0 | 13.0 | 0.00 | 0.00 | 0.00 | 59 | 1009.5 |
| 20260905171601 | 93 | 356 | 1.0 | 13.0 | 0.00 | 0.00 | 0.00 | 56 | 1009.5 |
| 20260905170600 | 93 | 308 | 4.0 | 9.0 | 0.00 | 0.00 | 0.00 | 55 | 1009.5 |
| 20260905165527 | 93 | 304 | 3.0 | 9.0 | 0.00 | 0.00 | 0.00 | 55 | 881.9 |
| 20260905164526 | 94 | 312 | 3.0 | 7.0 | 0.00 | 0.00 | 0.00 | 53 | 881.8 |
| 20260905163525 | 95 | 66 | 0.0 | 7.0 | 0.00 | 0.00 | 0.00 | 55 | 1009.8 |
| 20260905162525 | 94 | 250 | 3.0 | 10.0 | 0.00 | 0.00 | 0.00 | 57 | 1009.5 |
| 20260905161453 | 94 | 306 | 4.0 | 10.0 | 0.00 | 0.00 | 0.00 | 54 | 1009.8 |
| 20260905160451 | 94 | 294 | 3.0 | 6.0 | 0.00 | 0.00 | 0.00 | 55 | 1010.2 |
| 20260905155451 | 93 | 317 | 2.0 | 8.0 | 0.00 | 0.00 | 0.00 | 57 | 1010.2 |
| 20260905154450 | 93 | 44 | 0.0 | 8.0 | 0.00 | 0.00 | 0.00 | 57 | 1010.2 |
| 20260905153449 | 93 | 291 | 3.0 | 6.0 | 0.00 | 0.00 | 0.00 | 55 | 1010.2 |
| 20260905152448 | 93 | 74 | 0.0 | 5.0 | 0.00 | 0.00 | 0.00 | 56 | 1010.2 |
| 20260905151416 | 93 | 290 | 2.0 | 5.0 | 0.00 | 0.00 | 0.00 | 56 | 1010.2 |
| 20260905150415 | 92 | 89 | 2.0 | 6.0 | 0.00 | 0.00 | 0.00 | 57 | 1010.5 |
| 20260905145343 | 92 | 276 | 4.0 | 6.0 | 0.00 | 0.00 | 0.00 | 59 | 1010.5 |
| 20260905144342 | 90 | 270 | 1.0 | 5.0 | 0.00 | 0.00 | 0.00 | 61 | 1010.5 |
| 20260905143342 | 89 | 186 | 3.0 | 7.0 | 0.00 | 0.00 | 0.00 | 63 | 1010.5 |
| 20260905142341 | 88 | 252 | 2.0 | 7.0 | 0.00 | 0.00 | 0.00 | 66 | 1010.5 |
| 20260905141338 | 88 | 280 | 3.0 | 5.0 | 0.00 | 0.00 | 0.00 | 64 | 1010.5 |
| 20260905140336 | 88 | 226 | 3.0 | 5.0 | 0.00 | 0.00 | 0.00 | 65 | 1010.5 |
| 20260905135306 | 86 | 207 | 2.0 | 5.0 | 0.00 | 0.00 | 0.00 | 68 | 1010.2 |
| 20260905134301 | 86 | 294 | 1.0 | 5.0 | 0.00 | 0.00 | 0.00 | 68 | 1010.5 |
| 20260905133300 | 85 | 262 | 2.0 | 5.0 | 0.00 | 0.00 | 0.00 | 70 | 1010.5 |
| 20260905132259 | 84 | 277 | 2.0 | 5.0 | 0.00 | 0.00 | 0.00 | 72 | 1010.5 |
| 20260905131257 | 82 | 290 | 0.0 | 4.0 | 0.00 | 0.00 | 0.00 | 75 | 1010.5 |
| 20260905130257 | 81 | 283 | 2.0 | 4.0 | 0.00 | 0.00 | 0.00 | 75 | 1010.5 |
| 20260905125256 | 80 | 261 | 2.0 | 4.0 | 0.00 | 0.00 | 0.00 | 77 | 1010.5 |
| 20260905124255 | 79 | 264 | 1.0 | 4.0 | 0.00 | 0.00 | 0.00 | 81 | 1010.5 |
| 20260905123254 | 77 | 245 | 0.0 | 4.0 | 0.00 | 0.00 | 0.00 | 84 | 1010.5 |
| 20260905122254 | 75 | 266 | 0.0 | 5.0 | 0.00 | 0.00 | 0.00 | 85 | 1010.5 |
| 20260905121253 | 73 | 270 | 2.0 | 5.0 | 0.00 | 0.00 | 0.00 | 84 | 1010.5 |
| 20260905120252 | 72 | 293 | 1.0 | 3.0 | 0.00 | 0.00 | 0.00 | 72 | 1010.5 |
| 20260905115220 | 71 | 215 | 2.0 | 3.0 | 0.00 | 0.00 | 0.00 | 62 | 1010.5 |
| 20260905114219 | 70 | 277 | 0.0 | 1.0 | 0.00 | 0.00 | 0.00 | 58 | 1010.5 |
| 20260905113217 | 69 | 285 | 0.0 | 1.0 | 0.00 | 0.00 | 0.00 | 55 | 1010.5 |
| 20260905112216 | 69 | 225 | 0.0 | 1.0 | 0.00 | 0.00 | 0.00 | 57 | 1010.5 |
| 20260905111215 | 69 | 225 | 1.0 | 1.0 | 0.00 | 0.00 | 0.00 | 58 | 1010.5 |
| 20260905110215 | 69 | 297 | 0.0 | 0.0 | 0.00 | 0.00 | 0.00 | 64 | 1010.2 |
| 20260905105214 | 69 | 297 | 0.0 | 0.0 | 0.00 | 0.00 | 0.00 | 63 | 1010.2 |